IT9FBN-3 Weather Reports


time (UTC)temp
F
wind
direction
speed
knots
gust
knots
rain 1hr
in
rain 24hr
in
rain mn
in
humidity
%
barometer
mb
20260507162503 68 43 6.1 11.3 0.00 0.00 0.00 65 1010.8
20260507162002 68 45 7.0 12.2 0.00 0.00 0.00 65 1010.7
20260507161503 69 55 6.1 13.0 0.00 0.00 0.00 64 1010.7
20260507161002 69 56 6.1 13.0 0.00 0.00 0.00 63 1010.7
20260507160503 69 54 5.2 10.4 0.00 0.00 0.00 63 1010.7
20260507160002 70 58 6.1 12.2 0.00 0.00 0.00 62 1010.7
20260507155502 70 58 6.1 12.2 0.00 0.00 0.00 63 1010.7
20260507155002 70 65 7.0 12.2 0.00 0.00 0.00 60 1010.5
20260507154503 70 84 7.0 11.3 0.00 0.00 0.00 60 1010.5
20260507154002 70 92 7.0 13.0 0.00 0.00 0.00 51 1010.5
20260507153502 71 81 7.0 13.9 0.00 0.00 0.00 52 1010.4
20260507153003 71 68 7.0 13.9 0.00 0.00 0.00 57 1010.4
20260507152503 71 66 6.1 12.2 0.00 0.00 0.00 59 1010.2
20260507152003 71 89 7.0 11.3 0.00 0.00 0.00 59 1010.2
20260507151503 70 105 5.2 11.3 0.00 0.00 0.00 59 1010.1
20260507151003 71 107 4.3 13.0 0.00 0.00 0.00 58 1009.9
20260507150503 70 81 7.0 14.8 0.00 0.00 0.00 58 1009.9
20260507150002 70 58 7.0 14.8 0.00 0.00 0.00 61 1010.0
20260507145503 71 63 7.0 14.8 0.00 0.00 0.00 61 1010.2
20260507145002 71 71 7.8 14.8 0.00 0.00 0.00 60 1010.2
20260507144503 71 87 7.8 14.8 0.00 0.00 0.00 59 1010.5
20260507144003 72 105 8.7 15.6 0.00 0.00 0.00 52 1010.5
20260507143503 72 106 9.6 15.6 0.00 0.00 0.00 51 1010.5
20260507143003 72 103 9.6 15.6 0.00 0.00 0.00 53 1010.4
20260507142502 72 98 8.7 15.6 0.00 0.00 0.00 52 1010.6
20260507142003 72 101 8.7 15.6 0.00 0.00 0.00 52 1010.6
20260507141503 72 110 9.6 15.6 0.00 0.00 0.00 51 1010.5
20260507141003 72 104 9.6 18.2 0.00 0.00 0.00 51 1010.5
20260507140503 72 95 9.6 18.2 0.00 0.00 0.00 51 1010.5
20260507140003 72 97 10.4 18.2 0.00 0.00 0.00 51 1010.5
20260507135503 72 89 11.3 18.2 0.00 0.00 0.00 51 1010.3
20260507135003 73 88 7.8 15.6 0.00 0.00 0.00 50 1010.3
20260507134503 74 140 3.5 13.0 0.00 0.00 0.00 49 1010.4
20260507134003 74 190 3.5 8.7 0.00 0.00 0.00 47 1010.1
20260507133503 75 168 2.6 8.7 0.00 0.00 0.00 45 1010.3
20260507133003 74 85 1.7 6.1 0.00 0.00 0.00 47 1010.2
20260507132503 74 186 2.6 6.1 0.00 0.00 0.00 46 1010.3
20260507132003 74 223 3.5 7.8 0.00 0.00 0.00 47 1010.4
20260507131503 73 212 4.3 9.6 0.00 0.00 0.00 46 1010.3
20260507131002 73 199 5.2 9.6 0.00 0.00 0.00 46 1010.4
20260507130503 73 191 4.3 9.6 0.00 0.00 0.00 47 1010.6
20260507130003 73 176 3.5 8.7 0.00 0.00 0.00 48 1010.7
20260507125503 73 180 5.2 10.4 0.00 0.00 0.00 48 1010.7
20260507125003 72 194 5.2 10.4 0.00 0.00 0.00 48 1010.5
20260507124503 73 187 5.2 8.7 0.00 0.00 0.00 48 1010.8
20260507124003 73 179 5.2 8.7 0.00 0.00 0.00 49 1010.7
20260507123503 72 175 4.3 8.7 0.00 0.00 0.00 49 1010.6
20260507123003 73 171 3.5 7.0 0.00 0.00 0.00 49 1010.5
20260507122503 73 176 2.6 8.7 0.00 0.00 0.00 49 1010.5
20260507122004 73 171 3.5 8.7 0.00 0.00 0.00 48 1010.4
20260506191502 66 218 5.2 7.0 0.00 0.00 0.00 61 1012.4
20260506191002 66 223 5.2 9.6 0.00 0.00 0.00 61 1012.3
20260506190502 66 220 6.1 9.6 0.00 0.00 0.00 60 1012.2
20260506190002 66 218 6.1 9.6 0.00 0.00 0.00 59 1012.2
20260506185502 66 215 6.1 9.6 0.00 0.00 0.00 59 1012.3
20260506185002 66 212 6.1 8.7 0.00 0.00 0.00 63 1012.3
20260506184502 66 212 6.1 9.6 0.00 0.00 0.00 64 1011.9
20260506184002 66 214 7.0 11.3 0.00 0.00 0.00 65 1011.9
20260506183503 66 220 7.0 11.3 0.00 0.00 0.00 65 1011.9
20260506183002 66 228 6.1 9.6 0.00 0.00 0.00 64 1011.9
20260506182503 67 225 5.2 7.8 0.00 0.00 0.00 63 1012.0
20260506182002 67 222 5.2 7.8 0.00 0.00 0.00 61 1012.1
20260506181502 68 224 4.3 5.2 0.00 0.00 0.00 58 1012.4
20260506181002 68 226 5.2 9.6 0.00 0.00 0.00 55 1012.5
20260506180503 68 230 5.2 9.6 0.00 0.00 0.00 52 1012.5
20260506180003 69 235 5.2 10.4 0.00 0.00 0.00 51 1012.2
20260506175502 69 237 6.1 10.4 0.00 0.00 0.00 49 1012.1
20260506175002 69 230 6.1 8.7 0.00 0.00 0.00 50 1012.1
20260506174502 69 226 5.2 8.7 0.00 0.00 0.00 50 1012.2
20260506174003 68 241 2.6 7.0 0.00 0.00 0.00 53 1012.2
20260506173502 68 348 0.9 3.5 0.00 0.00 0.00 58 1012.3
20260506173002 69 9 1.7 4.3 0.00 0.00 0.00 58 1012.6
20260506172502 70 348 1.7 4.3 0.00 0.00 0.00 52 1012.8
20260506172002 70 301 2.6 7.0 0.00 0.00 0.00 45 1012.7
20260506171503 70 287 1.7 7.0 0.00 0.00 0.00 43 1012.7
20260506171002 69 327 0.9 4.3 0.00 0.00 0.00 57 1012.6
20260506170502 69 347 0.9 3.5 0.00 0.00 0.00 58 1012.7
20260506170002 69 360 1.7 5.2 0.00 0.00 0.00 57 1012.8
20260506165503 70 2 1.7 5.2 0.00 0.00 0.00 54 1012.8
20260506165002 71 337 1.7 4.3 0.00 0.00 0.00 46 1012.8
20260506164503 71 307 1.7 4.3 0.00 0.00 0.00 41 1012.8
20260506164002 71 230 0.9 3.5 0.00 0.00 0.00 43 1012.9
20260506163502 70 0 0.0 0.0 0.00 0.00 0.00 47 1013.1
20260506163003 70 0 0.0 0.0 0.00 0.00 0.00 52 1013.0